User: anonymous   Login
Location: Lombard
(41.8800°N, 88.0080°W)
Time: 03:06:40
(UTC-05:00)
Language:

XW-2A - Orbit

View from above orbital plane
View from above orbital plane
View from above satellite
View from above satellite

Ground track
Ground track

The orbit data is extracted from the following two-line orbital elements,

1 40903U 15049E   22136.17727627  .00023049  00000-0  38318-3 0  9992
2 40903  97.1820 194.6893 0008923 229.8091 214.8310 15.52028343374251
Epoch (UTC): 16 May 2022 04:15:16
Eccentricity: 0.0008923
inclination: 97.1820°
perigee height: 405 km
apogee height: 417 km
right ascension of ascending node: 194.6893°
argument of perigee: 229.8091°
revolutions per day: 15.52028343
mean anomaly at epoch: 214.8310°
orbit number at epoch: 37425

The dashed part of the orbit path shows where the satellite is in the earth's shadow,  

DLR